Sparta, WI

2:23 AM CDT on April 24, 2018 (GMT -0500)
Sparta-Fort McCoy

Weather History for KCMY - May, 2014

Change the Weather History Date:

Saturday, May 31, 2014

  Actual Average Record
Temperature  
Mean Temperature 69 °F -  
Max Temperature 87 °F 74 °F 89 °F (1988)
Min Temperature 51 °F 49 °F 31 °F (1972)
Cooling Degree Days 4    
Growing Degree Days 19 (Base 50)    
Moisture  
Dew Point 52 °F    
Average Humidity 56    
Maximum Humidity 94    
Minimum Humidity 23    
Precipitation  
Precipitation 0.27 in - - ()
Sea Level Pressure  
Sea Level Pressure 30.09 in    
Wind  
Wind Speed 3 mph (SSE)    
Max Wind Speed 14 mph    
Max Gust Speed 22 mph    
Visibility 10 miles    
Events Rain , Thunderstorm    
Averages and records for this station are not official NWS values.
T = Trace of Precipitation, MM = Missing Value Source: NWS Daily Summary

Daily Weather History Graph

Daily Weather History Graph

Search for Another Location

Airport or City:

Astronomy

May. 31, 2014 Rise Set
Actual Time 5:23 AM CDT 8:37 PM CDT
Civil Twilight 4:48 AM CDT 9:13 PM CDT
Nautical Twilight 4:03 AM CDT 9:59 PM CDT
Astronomical Twilight 3:07 AM CDT 10:55 PM CDT
Moon 8:03 AM CDT (5/31) 10:52 PM CDT (5/31)
Length of Visible Light 16h 24m
Length of Day
15h 14m
Waxing Crescent, 8% of the Moon is Illuminated
May 31
Waxing Crescent
Jun 5
First Quarter
Jun 12
Full
Jun 19
Last Quarter
Jun 27
New

Hourly Weather History & Observations

Time (CDT) Temp. Dew Point Humidity Pressure Visibility Wind Dir Wind Speed Gust Speed Precip Events Conditions
12:16 AM 59.0 °F 53.6 °F 82% 30.15 in 10.0 mi Calm Calm - N/A   Clear
12:36 AM 59.0 °F 53.6 °F 82% 30.15 in 10.0 mi NNE 3.5 mph - N/A   Clear
12:56 AM 59.0 °F 53.6 °F 82% 30.15 in 10.0 mi Calm Calm - N/A   Clear
1:16 AM 59.0 °F 53.6 °F 82% 30.16 in 10.0 mi Calm Calm - N/A   Clear
1:36 AM 59.0 °F 51.8 °F 77% 30.16 in 10.0 mi Calm Calm - N/A   Clear
1:56 AM 57.2 °F 51.8 °F 82% 30.16 in 10.0 mi Calm Calm - N/A   Clear
2:16 AM 57.2 °F 51.8 °F 82% 30.16 in 10.0 mi Calm Calm - N/A   Clear
2:36 AM 55.4 °F 51.8 °F 88% 30.15 in 10.0 mi Calm Calm - N/A   Clear
2:56 AM 53.6 °F 50.0 °F 88% 30.15 in 10.0 mi Calm Calm - N/A   Clear
3:16 AM 55.4 °F 51.8 °F 88% 30.15 in 10.0 mi Calm Calm - N/A   Clear
3:36 AM 53.6 °F 51.8 °F 94% 30.15 in 10.0 mi Calm Calm - N/A   Clear
3:40 AM 54.0 °F 51.4 °F 91% 30.15 in 10.0 mi Calm Calm - N/A   Clear
3:55 AM 54.1 °F 50.7 °F 88% 30.15 in 10.0 mi Calm Calm - N/A   Clear
4:15 AM 53.4 °F 50.0 °F 88% 30.16 in 10.0 mi Calm Calm - N/A   Clear
4:35 AM 52.3 °F 49.6 °F 91% 30.15 in 10.0 mi Calm Calm - N/A   Clear
4:55 AM 52.5 °F 49.6 °F 90% 30.15 in 10.0 mi Calm Calm - N/A   Clear
5:15 AM 51.6 °F 48.7 °F 90% 30.15 in 10.0 mi Calm Calm - N/A   Clear
5:35 AM 52.2 °F 48.9 °F 89% 30.15 in 10.0 mi Calm Calm - N/A   Clear
5:55 AM 52.7 °F 49.6 °F 89% 30.16 in 10.0 mi Calm Calm - N/A   Clear
6:15 AM 54.3 °F 50.9 °F 88% 30.16 in 10.0 mi Calm Calm - N/A   Clear
6:35 AM 57.7 °F 51.3 °F 79% 30.16 in 10.0 mi Calm Calm - N/A   Clear
6:55 AM 61.3 °F 53.1 °F 74% 30.16 in 10.0 mi Calm Calm - N/A   Clear
7:10 AM 63.9 °F 54.7 °F 72% 30.16 in 10.0 mi Calm Calm - N/A   Clear
7:35 AM 68.2 °F 52.7 °F 58% 30.15 in 10.0 mi Calm Calm - N/A   Clear
7:55 AM 68.2 °F 52.5 °F 57% 30.15 in 10.0 mi SSE 3.5 mph - N/A   Clear
8:15 AM 70.5 °F 52.9 °F 54% 30.15 in 10.0 mi East 3.5 mph - N/A   Clear
8:35 AM 70.3 °F 52.3 °F 53% 30.15 in 10.0 mi Calm Calm - N/A   Clear
8:55 AM 70.5 °F 52.7 °F 53% 30.15 in 10.0 mi Calm Calm - N/A   Clear
9:15 AM 73.2 °F 52.9 °F 49% 30.15 in 10.0 mi Calm Calm - N/A   Clear
9:35 AM 75.7 °F 51.6 °F 43% 30.15 in 10.0 mi South 4.6 mph - N/A   Clear
9:50 AM 76.8 °F 52.0 °F 42% 30.14 in 10.0 mi SSW 5.8 mph - N/A   Clear
10:15 AM 78.6 °F 52.0 °F 39% 30.14 in 10.0 mi SSW 5.8 mph - N/A   Clear
10:35 AM 79.7 °F 51.3 °F 37% 30.13 in 10.0 mi SSE 8.1 mph - N/A   Clear
10:55 AM 81.0 °F 50.5 °F 35% 30.13 in 10.0 mi SSW 4.6 mph - N/A   Clear
11:15 AM 81.7 °F 50.0 °F 33% 30.13 in 10.0 mi SSW 5.8 mph - N/A   Clear
11:35 AM 82.8 °F 49.3 °F 31% 30.12 in 10.0 mi South 10.4 mph - N/A   Clear
11:55 AM 83.5 °F 50.7 °F 32% 30.12 in 10.0 mi SSE 11.5 mph 16.1 mph N/A   Clear
12:15 PM 84.6 °F 49.5 °F 30% 30.12 in 10.0 mi South 10.4 mph - N/A   Clear
12:35 PM 84.9 °F 47.5 °F 27% 30.11 in 10.0 mi South 10.4 mph - N/A   Clear
12:55 PM 85.5 °F 47.5 °F 27% 30.10 in 10.0 mi SSW 10.4 mph - N/A   Clear
1:15 PM 85.3 °F 45.9 °F 25% 30.10 in 10.0 mi SSE 9.2 mph 17.3 mph N/A   Clear
1:35 PM 86.5 °F 45.9 °F 24% 30.09 in 10.0 mi SSW 10.4 mph - N/A   Clear
1:55 PM 86.9 °F 46.2 °F 24% 30.08 in 10.0 mi SSE 10.4 mph - N/A   Clear
2:15 PM 86.2 °F 44.2 °F 23% 30.07 in 10.0 mi SE 13.8 mph 17.3 mph N/A   Clear
2:35 PM 86.5 °F 45.7 °F 24% 30.07 in 10.0 mi South 8.1 mph 16.1 mph N/A   Clear
2:55 PM 87.1 °F 46.0 °F 24% 30.06 in 10.0 mi SSE 11.5 mph - N/A   Clear
3:10 PM 86.4 °F 45.7 °F 24% 30.05 in 10.0 mi SE 12.7 mph - N/A   Clear
3:35 PM 87.3 °F 46.6 °F 24% 30.04 in 10.0 mi SSE 13.8 mph 19.6 mph N/A   Clear
3:55 PM 87.4 °F 46.0 °F 24% 30.03 in 10.0 mi South 9.2 mph - N/A   Clear
4:15 PM 87.3 °F 48.2 °F 26% 30.02 in 10.0 mi SSE 11.5 mph 16.1 mph N/A   Clear
4:35 PM 87.1 °F 49.3 °F 27% 30.01 in 10.0 mi South 13.8 mph 19.6 mph N/A   Clear
4:55 PM 86.9 °F 51.4 °F 29% 30.01 in 10.0 mi SE 9.2 mph 21.9 mph N/A   Clear
5:15 PM 86.4 °F 52.0 °F 31% 30.01 in 10.0 mi SE 11.5 mph 17.3 mph N/A   Clear
5:35 PM 86.4 °F 52.9 °F 32% 30.01 in 10.0 mi SSE 12.7 mph 19.6 mph N/A   Clear
5:55 PM 86.0 °F 52.7 °F 32% 30.00 in 10.0 mi SSE 9.2 mph 18.4 mph N/A   Clear
6:15 PM 83.5 °F 51.3 °F 33% 30.01 in 10.0 mi South 11.5 mph 17.3 mph N/A   Clear
6:35 PM 82.8 °F 51.3 °F 33% 30.00 in 10.0 mi SSE 5.8 mph - N/A   Clear
6:55 PM 82.4 °F 49.3 °F 31% 30.00 in 10.0 mi SSE 6.9 mph - N/A   Clear
7:15 PM 81.3 °F 50.7 °F 34% 29.99 in 10.0 mi SE 4.6 mph - N/A   Clear
7:35 PM 80.2 °F 50.0 °F 35% 29.99 in 10.0 mi SSE 3.5 mph - N/A   Clear
7:55 PM 79.2 °F 51.6 °F 38% 29.99 in 10.0 mi Calm Calm - N/A   Scattered Clouds
8:10 PM 78.1 °F 52.7 °F 41% 29.99 in 10.0 mi Calm Calm - N/A   Scattered Clouds
8:30 PM 75.9 °F 55.8 °F 49% 29.98 in 10.0 mi Calm Calm - N/A   Scattered Clouds
8:55 PM 73.0 °F 55.8 °F 55% 29.98 in 10.0 mi Calm Calm - N/A   Mostly Cloudy
9:15 PM 71.4 °F 57.4 °F 61% 29.98 in 10.0 mi Calm Calm - N/A   Scattered Clouds
9:35 PM 70.5 °F 57.7 °F 64% 29.99 in 10.0 mi Calm Calm - N/A Thunderstorm Clear
9:55 PM 70.9 °F 57.2 °F 62% 29.99 in 10.0 mi East 4.6 mph - N/A Thunderstorm Mostly Cloudy
10:10 PM 70.7 °F 57.9 °F 64% 29.99 in 10.0 mi West 6.9 mph - N/A   Mostly Cloudy
10:35 PM 71.8 °F 58.3 °F 62% 30.00 in 10.0 mi West 4.6 mph - N/A Rain Light Rain
10:55 PM 70.2 °F 59.5 °F 69% 30.00 in 7.0 mi Calm Calm - N/A Rain Rain
11:15 PM 68.2 °F 65.3 °F 90% 30.04 in 4.0 mi SW 5.8 mph 17.3 mph 0.09 in Rain , Thunderstorm Heavy Thunderstorms and Rain
11:35 PM 67.3 °F 64.9 °F 92% 30.04 in 5.0 mi SSE 9.2 mph - 0.24 in Rain , Thunderstorm Thunderstorms and Rain
11:55 PM 68.0 °F 65.3 °F 91% 30.03 in 10.0 mi South 12.7 mph 18.4 mph 0.27 in Rain Light Rain